STARLINK-32758 (62744 NORAD) Tracking and Keplerian Element Data

This shows tracking and keplerian element data for the satellite.

Feedback or suggestion? Click here.




ElementValue
Catalog62744
NameSTARLINK-32758
Epoch Orbit5103
Epoch Day354.01969513
Epoch Year2025
RAAN247.7257
Inclination43.0004
Eccentricity9.44E-05
Argument of Perigee257.1756
Mean Anonmoly102.899
Mean Motion15.27579117
Decay Rate0.00016679
L11 62744U 25014K 25354.01969513 .00016679 00000+0 61428-3 0 9990
L22 62744 43.0004 247.7257 0000944 257.1756 102.8990 15.27579117 51033



Live tracking and technical data element details for STARLINK-32758 (NORAD 62744). STARLINK-32758 can be tracked NOW for your location showing map with azimuth and elevation plus other details from your city location.







IsCatalogInMostPopularTable: catalog: 62744, numindb: 236
Update: records affected: 1



GetName: 62744 STARLINK-32758

Hit Count: updated at: Wed, 15 Apr 2026 01:45:07 GMT